When you browse on this site, cookies collect data to enhance your experience and personalize the content and advertising you see.
Visit our Privacy Policy to learn more. By continuing to use the site, you agree to this use of cookies and data.
  • în România
  • Lista ţărilor
  • Pe 7 zile
  • Temperatura apei
  • Hartă satelitară
  • Meteo pe hartă
  • Widget-uri
  • user-avatar
    Intrare

    Meteo pe oră la As-Salt

    Astăzi, 20 Ianuarie, Duminică

    Timp Temperatura Precipitaţii Vânt Presiune Umiditate
    00:00 +9°C° 0 mm 2 m/s 716 mmHg 62%
    01:00 +8°C° 0 mm 3 m/s 716 mmHg 63%
    02:00 +8°C° 0 mm 2 m/s 716 mmHg 64%
    03:00 +7°C° 0 mm 2 m/s 716 mmHg 64%
    04:00 +7°C° 0 mm 3 m/s 716 mmHg 64%
    05:00 +7°C° 0 mm 3 m/s 716 mmHg 64%
    06:00 +7°C° 0 mm 3 m/s 716 mmHg 64%
    07:00 +8°C° 0 mm 3 m/s 716 mmHg 63%
    08:00 +8°C° 0 mm 3 m/s 716 mmHg 64%
    09:00 +9°C° 0 mm 3 m/s 716 mmHg 58%
    10:00 +11°C° 0 mm 3 m/s 716 mmHg 52%
    11:00 +12°C° 0 mm 3 m/s 716 mmHg 46%
    12:00 +13°C° 0 mm 3 m/s 715 mmHg 43%
    13:00 +14°C° 0 mm 3 m/s 715 mmHg 39%
    14:00 +14°C° 0 mm 3 m/s 715 mmHg 37%
    15:00 +14°C° 0 mm 3 m/s 715 mmHg 39%
    16:00 +14°C° 0 mm 2 m/s 714 mmHg 41%
    17:00 +14°C° 0 mm 2 m/s 714 mmHg 43%
    18:00 +13°C° 0 mm 2 m/s 714 mmHg 44%
    19:00 +12°C° 0 mm 3 m/s 714 mmHg 45%
    20:00 +11°C° 0 mm 3 m/s 714 mmHg 46%
    21:00 +11°C° 0 mm 3 m/s 714 mmHg 47%
    22:00 +11°C° 0 mm 3 m/s 714 mmHg 47%
    23:00 +10°C° 0 mm 2 m/s 714 mmHg 47%

    Mâine, 21 Ianuarie, Luni

    Timp Temperatura Precipitaţii Vânt Presiune Umiditate
    00:00 +10°C° 0 mm 2 m/s 714 mmHg 48%
    01:00 +10°C° 0 mm 2 m/s 714 mmHg 49%
    02:00 +9°C° 0 mm 2 m/s 714 mmHg 49%
    03:00 +9°C° 0 mm 2 m/s 714 mmHg 50%
    04:00 +9°C° 0 mm 2 m/s 714 mmHg 51%
    05:00 +8°C° 0 mm 2 m/s 713 mmHg 52%
    06:00 +9°C° 0 mm 2 m/s 714 mmHg 51%
    07:00 +9°C° 0 mm 2 m/s 714 mmHg 51%
    08:00 +9°C° 0 mm 2 m/s 714 mmHg 50%
    09:00 +12°C° 0 mm 2 m/s 714 mmHg 46%
    10:00 +13°C° 0 mm 2 m/s 715 mmHg 41%
    11:00 +15°C° 0 mm 1 m/s 715 mmHg 37%
    12:00 +16°C° 0 mm 1 m/s 715 mmHg 35%
    13:00 +16°C° 0 mm 1 m/s 714 mmHg 33%
    14:00 +18°C° 0 mm 1 m/s 714 mmHg 31%
    15:00 +16°C° 0 mm 1 m/s 714 mmHg 35%
    16:00 +15°C° 0 mm 1 m/s 714 mmHg 39%
    17:00 +15°C° 0 mm 1 m/s 714 mmHg 43%
    18:00 +14°C° 0 mm 1 m/s 714 mmHg 45%
    19:00 +13°C° 0 mm 1 m/s 714 mmHg 47%
    20:00 +13°C° 0 mm 1 m/s 714 mmHg 48%
    21:00 +12°C° 0 mm 1 m/s 714 mmHg 49%
    22:00 +12°C° 0 mm 1 m/s 714 mmHg 50%
    23:00 +12°C° 0 mm 1 m/s 714 mmHg 51%

    Poimâine, 22 Ianuarie, Marţi

    Timp Temperatura Precipitaţii Vânt Presiune Umiditate
    00:00 +11°C° 0 mm 1 m/s 713 mmHg 51%
    01:00 +11°C° 0 mm 1 m/s 713 mmHg 52%
    02:00 +11°C° 0 mm 1 m/s 713 mmHg 52%
    03:00 +10°C° 0 mm 1 m/s 713 mmHg 52%
    04:00 +10°C° 0 mm 1 m/s 713 mmHg 53%
    05:00 +10°C° 0 mm 1 m/s 712 mmHg 53%
    06:00 +11°C° 0 mm 1 m/s 713 mmHg 51%
    07:00 +12°C° 0 mm 1 m/s 713 mmHg 50%
    08:00 +12°C° 0 mm 1 m/s 714 mmHg 48%
    09:00 +14°C° 0 mm 1 m/s 714 mmHg 44%
    10:00 +15°C° 0 mm 1 m/s 714 mmHg 39%
    11:00 +18°C° 0 mm 1 m/s 715 mmHg 34%
    12:00 +18°C° 0 mm 1 m/s 714 mmHg 33%
    13:00 +19°C° 0 mm 1 m/s 714 mmHg 31%
    14:00 +18°C° 0 mm 2 m/s 713 mmHg 30%
    15:00 +17°C° 0 mm 2 m/s 713 mmHg 33%
    16:00 +16°C° 0 mm 2 m/s 713 mmHg 37%
    17:00 +15°C° 0 mm 2 m/s 713 mmHg 40%
    18:00 +15°C° 0 mm 2 m/s 713 mmHg 45%
    19:00 +14°C° 0 mm 1 m/s 714 mmHg 49%
    20:00 +13°C° 0 mm 1 m/s 714 mmHg 53%
    21:00 +12°C° 0 mm 1 m/s 714 mmHg 56%
    22:00 +12°C° 0 mm 1 m/s 714 mmHg 59%
    23:00 +11°C° 0 mm 1 m/s 714 mmHg 62%

    23 Ianuarie, Miercuri

    Timp Temperatura Precipitaţii Vânt Presiune Umiditate
    00:00 +11°C° 0 mm 1 m/s 714 mmHg 64%
    01:00 +11°C° 0 mm 1 m/s 713 mmHg 65%
    02:00 +10°C° 0 mm 1 m/s 713 mmHg 67%
    03:00 +10°C° 0 mm 1 m/s 713 mmHg 67%
    04:00 +10°C° 0 mm 1 m/s 713 mmHg 67%
    05:00 +9°C° 0 mm 1 m/s 713 mmHg 67%
    06:00 +10°C° 0 mm 1 m/s 713 mmHg 64%
    07:00 +11°C° 0 mm 1 m/s 714 mmHg 60%
    08:00 +12°C° 0 mm 1 m/s 714 mmHg 57%
    09:00 +13°C° 0 mm 1 m/s 714 mmHg 50%
    10:00 +15°C° 0 mm 1 m/s 714 mmHg 42%
    11:00 +16°C° 0 mm 2 m/s 714 mmHg 35%
    12:00 +17°C° 0 mm 2 m/s 714 mmHg 33%
    13:00 +18°C° 0 mm 2 m/s 713 mmHg 30%
    14:00 +18°C° 0 mm 2 m/s 713 mmHg 28%
    15:00 +18°C° 0 mm 2 m/s 712 mmHg 30%
    16:00 +17°C° 0 mm 2 m/s 712 mmHg 33%
    17:00 +16°C° 0 mm 2 m/s 711 mmHg 36%
    18:00 +15°C° 0 mm 2 m/s 712 mmHg 37%
    19:00 +14°C° 0 mm 3 m/s 712 mmHg 38%
    20:00 +13°C° 0 mm 3 m/s 712 mmHg 39%
    21:00 +13°C° 0 mm 3 m/s 712 mmHg 40%
    22:00 +12°C° 0 mm 3 m/s 712 mmHg 41%
    23:00 +12°C° 0 mm 3 m/s 712 mmHg 41%

    24 Ianuarie, Joi

    Timp Temperatura Precipitaţii Vânt Presiune Umiditate
    00:00 +12°C° 0 mm 3 m/s 711 mmHg 42%
    01:00 +11°C° 0 mm 3 m/s 711 mmHg 42%
    02:00 +11°C° 0 mm 3 m/s 711 mmHg 43%
    03:00 +11°C° 0 mm 3 m/s 710 mmHg 43%
    04:00 +10°C° 0 mm 3 m/s 710 mmHg 44%
    05:00 +10°C° 0 mm 3 m/s 710 mmHg 45%
    06:00 +10°C° 0 mm 3 m/s 710 mmHg 45%
    07:00 +10°C° 0 mm 3 m/s 710 mmHg 45%
    08:00 +10°C° 0 mm 3 m/s 710 mmHg 45%
    09:00 +12°C° 0 mm 3 m/s 710 mmHg 40%
    10:00 +14°C° 0 mm 3 m/s 711 mmHg 35%
    11:00 +16°C° 0 mm 3 m/s 711 mmHg 31%
    12:00 +18°C° 0 mm 3 m/s 710 mmHg 28%
    13:00 +19°C° 0 mm 3 m/s 710 mmHg 25%
    14:00 +20°C° 0 mm 3 m/s 709 mmHg 21%
    15:00 +19°C° 0 mm 3 m/s 709 mmHg 24%
    16:00 +18°C° 0 mm 2 m/s 709 mmHg 26%
    17:00 +17°C° 0 mm 2 m/s 709 mmHg 28%
    18:00 +16°C° 0 mm 1 m/s 709 mmHg 29%
    19:00 +16°C° 0 mm 1 m/s 710 mmHg 29%
    20:00 +15°C° 0 mm 1 m/s 710 mmHg 30%
    21:00 +14°C° 0 mm 1 m/s 710 mmHg 37%
    22:00 +14°C° 0 mm 2 m/s 711 mmHg 43%
    23:00 +13°C° 0 mm 2 m/s 711 mmHg 50%

    25 Ianuarie, Vineri

    Timp Temperatura Precipitaţii Vânt Presiune Umiditate
    00:00 +12°C° 0 mm 2 m/s 711 mmHg 58%
    01:00 +12°C° 0 mm 1 m/s 711 mmHg 65%
    02:00 +11°C° 0 mm 1 m/s 712 mmHg 73%
    03:00 +11°C° 0 mm 1 m/s 712 mmHg 76%
    04:00 +10°C° 0 mm 1 m/s 712 mmHg 79%
    05:00 +10°C° 0 mm 1 m/s 712 mmHg 82%
    06:00 +11°C° 0 mm 1 m/s 712 mmHg 81%
    07:00 +10°C° 0 mm 2 m/s 713 mmHg 80%
    08:00 +10°C° 0 mm 2 m/s 713 mmHg 79%
    09:00 +13°C° 0 mm 2 m/s 713 mmHg 71%
    10:00 +14°C° 0 mm 2 m/s 713 mmHg 64%
    11:00 +16°C° 0 mm 1 m/s 713 mmHg 56%
    12:00 +18°C° 0 mm 1 m/s 713 mmHg 51%
    13:00 +18°C° 0 mm 1 m/s 712 mmHg 46%
    14:00 +19°C° 0 mm 1 m/s 712 mmHg 41%
    15:00 +19°C° 0 mm 1 m/s 712 mmHg 44%
    16:00 +18°C° 0 mm 1 m/s 711 mmHg 47%
    17:00 +16°C° 0 mm 1 m/s 711 mmHg 51%
    18:00 +16°C° 0 mm 1 m/s 711 mmHg 51%
    19:00 +15°C° 0 mm 1 m/s 711 mmHg 52%
    20:00 +14°C° 0 mm 1 m/s 711 mmHg 53%
    21:00 +14°C° 0 mm 1 m/s 711 mmHg 53%
    22:00 +14°C° 0 mm 1 m/s 711 mmHg 53%
    23:00 +13°C° 0 mm 2 m/s 711 mmHg 54%
    Arată mai mult